TimeEST,TemperatureF,Dew PointF,Humidity,Sea Level PressureIn,VisibilityMPH,Wind Direction,Wind SpeedMPH,Gust SpeedMPH,PrecipitationIn,Events,Conditions,WindDirDegrees,DateUTC
12:53 AM,39.9,27.0,60,29.93,10.0,WSW,15.0,20.7,N/A,,Overcast,240,1999-01-19 05:53:00
1:53 AM,39.0,26.1,60,29.94,10.0,WSW,19.6,32.2,N/A,,Mostly Cloudy,250,1999-01-19 06:53:00
3:53 AM,37.9,25.0,60,29.97,10.0,SW,10.4,20.7,N/A,,Mostly Cloudy,230,1999-01-19 08:53:00
4:53 AM,37.0,23.0,57,30.00,10.0,WSW,15.0,25.3,N/A,,Partly Cloudy,240,1999-01-19 09:53:00
5:53 AM,36.0,21.0,55,30.02,10.0,WSW,17.3,28.8,N/A,,Clear,240,1999-01-19 10:53:00
6:53 AM,35.1,17.1,48,30.05,10.0,SW,13.8,20.7,N/A,,Partly Cloudy,220,1999-01-19 11:53:00
7:53 AM,35.1,16.0,46,30.09,10.0,WSW,8.1,-,N/A,,Clear,240,1999-01-19 12:53:00
8:53 AM,36.0,16.0,44,30.10,10.0,SW,12.7,-,N/A,,Clear,230,1999-01-19 13:53:00
9:53 AM,37.0,16.0,42,30.12,10.0,SW,17.3,23.0,N/A,,Clear,230,1999-01-19 14:53:00
10:53 AM,37.9,14.0,38,30.12,10.0,WSW,13.8,23.0,N/A,,Clear,250,1999-01-19 15:53:00
11:53 AM,41.0,15.1,35,30.12,10.0,WSW,10.4,21.9,N/A,,Clear,250,1999-01-19 16:53:00
12:53 PM,42.1,12.9,31,30.10,10.0,West,12.7,19.6,N/A,,Clear,270,1999-01-19 17:53:00
1:53 PM,44.1,12.9,28,30.07,10.0,WSW,11.5,-,N/A,,Clear,240,1999-01-19 18:53:00
2:53 PM,44.1,12.0,27,30.08,10.0,West,9.2,-,N/A,,Scattered Clouds,260,1999-01-19 19:53:00
3:53 PM,44.1,12.0,27,30.10,9.0,Variable,6.9,-,N/A,,Mostly Cloudy,0,1999-01-19 20:53:00
4:53 PM,43.0,12.9,30,30.10,10.0,Variable,4.6,-,N/A,,Mostly Cloudy,0,1999-01-19 21:53:00
5:53 PM,42.1,12.9,31,30.14,10.0,Variable,5.8,-,N/A,,Overcast,0,1999-01-19 22:53:00
6:53 PM,41.0,15.1,35,30.14,10.0,Variable,4.6,-,N/A,,Overcast,0,1999-01-19 23:53:00
7:53 PM,41.0,19.0,41,30.13,10.0,Variable,3.5,-,N/A,,Mostly Cloudy,0,1999-01-20 00:53:00
8:53 PM,39.0,19.0,45,30.13,10.0,Calm,Calm,-,N/A,,Mostly Cloudy,0,1999-01-20 01:53:00
9:53 PM,37.9,21.9,53,30.13,9.0,North,6.9,-,N/A,,Overcast,10,1999-01-20 02:53:00
10:34 PM,35.6,28.4,75,30.11,3.0,Variable,3.5,-,0.00,Snow,Light Snow,0,1999-01-20 03:34:00
10:53 PM,34.0,30.9,89,30.14,1.5,NNW,3.5,-,0.01,Snow,Light Snow,340,1999-01-20 03:53:00
11:53 PM,32.0,32.0,100,30.13,0.8,Calm,Calm,-,0.06,Snow,Light Snow,0,1999-01-20 04:53:00